Regional Weather Roundup
Issued by NWS

Home | Current Version | Previous Version | Text Only | Print | Product List | Glossary Off
Versions: 1 2 3 4 5 6 7 8 9 10 11 12 13 14 15 16 17 18 19 20 21 22 23 24 25 26 27 28 29 30 31 32 33 34 35 36 37 38 39 40 41 42 43 44 45 46 47 48 49 50

000
ASUS43 KFSD 291302
RWRSD

WEATHER ROUNDUP FOR SOUTH DAKOTA
NATIONAL WEATHER SERVICE SIOUX FALLS SD
800 AM CDT SAT AUG 29 2015

NOTE: "FAIR" INDICATES FEW OR NO CLOUDS BELOW 12,000 FEET WITH NO
SIGNIFICANT WEATHER AND/OR OBSTRUCTIONS TO VISIBILITY.


SDZ001>005-009-010-012>017-291400-
NORTHWEST AND NORTH CENTRAL SOUTH DAKOTA

CITY           SKY/WX    TMP DP  RH WIND       PRES   REMARKS
FAITH            N/A     63  52  67 SE3       30.01R
MOBRIDGE       MOCLDY    60  59  96 CALM      29.96R FOG
$$

SDZ012>016-024>037-041>051-057-063-072>074-291400-
SOUTHWEST AND SOUTH CENTRAL SOUTH DAKOTA

CITY           SKY/WX    TMP DP  RH WIND       PRES   REMARKS
RAPID CTY ARPT LGT RAIN  57  53  86 CALM      30.06R
PIERRE         MOCLDY    62  60  93 S6        29.98S
CUSTER         CLEAR     64  40  41 W6        30.23R
ELLSWORTH AFB  PTCLDY    64  49  58 SW3       30.05R
PHILIP         CLOUDY    62  56  80 W5        30.02R
PINE RIDGE     CLEAR     53  47  79 CALM      30.10R
WINNER         FAIR      66  60  81 SW9       30.04R
$$

SDZ004>011-016>023-039-040-291400-
NORTHEAST SOUTH DAKOTA

CITY           SKY/WX    TMP DP  RH WIND       PRES   REMARKS
ABERDEEN       SUNNY     60  58  92 S12       29.99R
WATERTOWN      SUNNY     56  55  97 S7        30.05R
BROOKINGS      MOSUNNY   54  50  87 SE5       30.08R VSB 1/2
$$

SDZ017-020-022-023-036>040-048>070-291400-
SOUTHEAST SOUTH DAKOTA

CITY           SKY/WX    TMP DP  RH WIND       PRES   REMARKS
SIOUX FALLS    SUNNY     55  54  96 CALM      30.08R
HURON          SUNNY     59  57  93 S7        30.03R
CHAMBERLAIN    MOSUNNY   60  60 100 SE5       30.03S FOG
MITCHELL       SUNNY     59  58  96 S6        30.06R
YANKTON        CLOUDY    55  55 100 S3        30.07S VSB<1/4
$$

ABBREVIATIONS USED IN REMARKS
   TC - TEMPERATURE IN CELSIUS
  WCI - WIND CHILL INDEX
   HX - HEAT INDEX
  VSB - VISIBILITY



USA.gov is the U.S. government's official web portal to all federal, state and local government web resources and services.